New York Downtown Manhattan/w, NY

7:47 PM EST on November 13, 2019 (GMT -0500)
New York Downtown Manhattan/w

Weather History for KJRB - October, 2019

Change the Weather History Date:

Wednesday, October 23, 2019

  Actual Average (WUND) Record (WUND)
Temperature  
Mean Temperature 64 °F -  
Max Temperature 70 °F - - (-1)
Min Temperature 57 °F - - (-1)
Degree Days  
Heating Degree Days 2    
Growing Degree Days 14 (Base 50)    
Moisture  
Dew Point 49 °F    
Average Humidity 65    
Maximum Humidity 100    
Minimum Humidity 31    
Precipitation  
Precipitation 0.02 in - - ()
Sea Level Pressure  
Sea Level Pressure 29.93 in    
Wind  
Wind Speed 4 mph ()    
Max Wind Speed 15 mph    
Max Gust Speed 43 mph    
Averages and records for this station are not official NWS values.
T = Trace of Precipitation, MM = Missing Value Source: Averaged Metar Reports

Daily Weather History Graph

Daily Weather History Graph

Search for Another Location

Airport or City:

Astronomy

Oct. 23, 2019 Rise Set
Actual Time 7:15 AM EDT 6:04 PM EDT
Civil Twilight 6:47 AM EDT 6:32 PM EDT
Nautical Twilight 6:15 AM EDT 7:04 PM EDT
Astronomical Twilight 5:44 AM EDT 7:35 PM EDT
Moon 1:28 AM EDT (10/23) 3:55 PM EDT (10/23)
Length of Visible Light 11h 44m
Length of Day
10h 48m
Waning Crescent, 27% of the Moon is Illuminated
Oct 23
Waning Crescent
Oct 27
New
Nov 4
First Quarter
Nov 12
Full
Nov 19
Last Quarter

Hourly Weather History & Observations

Time (EDT) Temp. Dew Point Humidity Pressure Visibility Wind Dir Wind Speed Gust Speed Precip Events Conditions
12:40 AM 64.4 °F 62.6 °F 94% 29.78 in - Variable 4.6 mph - N/A   Overcast
12:56 AM 64.0 °F 63.0 °F 96% 29.77 in - West 4.6 mph - N/A   Overcast
1:54 AM 62.6 °F 60.8 °F 94% 29.78 in - Calm Calm - 0.01 in   Overcast
1:56 AM 62.1 °F 60.1 °F 93% 29.78 in - Variable 3.5 mph - 0.01 in   Overcast
2:11 AM 60.8 °F 60.8 °F 100% 29.78 in - Calm Calm - N/A   Overcast
2:38 AM 60.8 °F 59.0 °F 94% 29.77 in - NE 4.6 mph - N/A   Mostly Cloudy
2:56 AM 61.0 °F 57.9 °F 90% 29.77 in - Calm Calm - N/A   Mostly Cloudy
3:56 AM 60.1 °F 57.0 °F 90% 29.78 in - Calm Calm - N/A   Overcast
4:56 AM 60.1 °F 55.9 °F 86% 29.80 in - Calm Calm - N/A   Clear
5:56 AM 59.0 °F 55.0 °F 87% 29.82 in - Calm Calm - N/A   Clear
6:56 AM 59.0 °F 53.1 °F 81% 29.85 in - Variable 3.5 mph - N/A   Clear
7:56 AM 57.9 °F 52.0 °F 81% 29.89 in - Variable 5.8 mph - N/A   Clear
8:56 AM 60.1 °F 52.0 °F 75% 29.92 in - WSW 6.9 mph - N/A   Clear
9:56 AM 62.1 °F 51.1 °F 67% 29.95 in - Variable 5.8 mph - N/A   Clear
10:56 AM 64.0 °F 50.0 °F 60% 29.95 in - West 11.5 mph 42.6 mph 0.01 in   Partly Cloudy
11:56 AM 66.0 °F 42.1 °F 42% 29.95 in - West 8.1 mph 35.7 mph N/A   Partly Cloudy
12:56 PM 66.9 °F 39.9 °F 37% 29.96 in - Variable 4.6 mph - N/A   Clear
1:56 PM 69.1 °F 39.9 °F 35% 29.96 in - WSW 10.4 mph 17.3 mph N/A   Clear
2:56 PM 70.0 °F 39.0 °F 32% 29.96 in - West 12.7 mph - N/A   Clear
3:56 PM 70.0 °F 37.9 °F 31% 29.98 in - West 15.0 mph 19.6 mph N/A   Clear
4:56 PM 68.0 °F 39.0 °F 35% 30.00 in - West 12.7 mph 21.9 mph N/A   Clear
5:56 PM 64.9 °F 39.0 °F 39% 30.03 in - West 11.5 mph 42.6 mph N/A   Clear
6:56 PM 62.1 °F 41.0 °F 46% 30.07 in - West 8.1 mph - N/A   Clear
7:56 PM 61.0 °F 42.1 °F 50% 30.11 in - West 9.2 mph - N/A   Clear
8:56 PM 60.1 °F 39.0 °F 46% 30.14 in - West 4.6 mph - N/A   Clear
9:56 PM 59.0 °F 39.0 °F 48% 30.16 in - West 6.9 mph - N/A   Clear
10:56 PM 57.9 °F 37.9 °F 47% 30.18 in - WSW 6.9 mph - N/A   Clear
11:56 PM 57.0 °F 39.0 °F 51% 30.19 in - West 6.9 mph - N/A   Clear